Notices

What's New in latest Release from April 7th, 2021:

- Updated Glossary, including Speed of Maximum Gust, and Total Hourly Precipitation

- Updated national and regional climate services offices contacts and prices information

- Addition of station inventory lists for 1981-2010, 1971-2000, and 1961-1990 Normals.

If you haven't already, please take our survey and provide feedback about our website: https://eccc.sondage-survey.ca/f/LanguageSelection.aspx?s=442ca660-fcf1-47c0-95a9-59707d6fd709

Hourly Data Report for July 06, 2003

TORONTO CITY
ONTARIO

43°40'00.000" N
79°24'00.000" W
112.50 m
6158355
71508
XTO

Download Data

Hourly Data (July 2003)
Hourly Data Report for July 6, 2003
TIME
LST
Temp Definition
°C
Dew Point Definition
°C
Rel Hum Definition
%
Precip. Amount Definition
mm

Wind Dir Definition
10's deg

Wind Spd Definition
km/h
Visibility Definition
km
Stn Press Definition
kPa
Hmdx Definition


Wind Chill Definition


Weather Definition


00:00 22.7 19.8 84   LegendMM LegendMM LegendMM 99.76 30   LegendNANA
01:00 22.1 19.3 84   LegendMM LegendMM LegendMM 99.74 29   LegendNANA
02:00 21.7 19.1 85   LegendMM LegendMM LegendMM 99.75 29   LegendNANA
03:00 21.6 18.4 82   LegendMM LegendMM LegendMM 99.76 28   LegendNANA
04:00 21.1 16.9 77   LegendMM LegendMM LegendMM 99.75 26   LegendNANA
05:00 20.0 15.7 76   LegendMM LegendMM LegendMM 99.81     LegendNANA
06:00 21.1 13.6 62   LegendMM LegendMM LegendMM 99.86     LegendNANA
07:00 22.5 13.3 56   LegendMM LegendMM LegendMM 99.90 25   LegendNANA
08:00 23.7 13.4 52   LegendMM LegendMM LegendMM 99.92 27   LegendNANA
09:00 25.2 15.2 54   LegendMM LegendMM LegendMM 99.95 29   LegendNANA
10:00 26.9 15.3 49   LegendMM LegendMM LegendMM 99.95 31   LegendNANA
11:00 28.0 15.2 46   LegendMM LegendMM LegendMM 99.93 32   LegendNANA
12:00 28.7 16.1 46   LegendMM LegendMM LegendMM 99.94 33   LegendNANA
13:00 28.7 14.7 42   LegendMM LegendMM LegendMM 99.94 32   LegendNANA
14:00 28.4 13.8 41   LegendMM LegendMM LegendMM 99.90 32   LegendNANA
15:00 29.3 13.8 39   LegendMM LegendMM LegendMM 99.90 33   LegendNANA
16:00 29.4 14.9 41   LegendMM LegendMM LegendMM 99.90 33   LegendNANA
17:00 28.8 13.1 38   LegendMM LegendMM LegendMM 99.86 32   LegendNANA
18:00 27.9 12.7 39   LegendMM LegendMM LegendMM 99.84 31   LegendNANA
19:00 27.2 12.3 40   LegendMM LegendMM LegendMM 99.83 30   LegendNANA
20:00 25.5 11.6 42   LegendMM LegendMM LegendMM 99.85 28   LegendNANA
21:00 24.5 11.4 44   LegendMM LegendMM LegendMM 99.91 26   LegendNANA
22:00 24.0 12.0 47   LegendMM LegendMM LegendMM 99.91 26   LegendNANA
23:00 23.6 14.6 57   LegendMM LegendMM LegendMM 99.91 27   LegendNANA

Notes on Data Quality.

Legend

  • E = Estimated
  • M = Missing
  • NA = Not Available*
  • [empty] = Indicates an unobserved value
Date modified: